{"data":{"norad_id":59505,"intl_designator":"2024-071X","name":"STARLINK-31533","alt_names":[],"object_type":"PAYLOAD","status":"ACTIVE","operator":null,"country":"US","launch_date":"2024-04-13","launch_site_code":"AFETR","launch_vehicle":null,"mission":null,"orbit_class":"UNKNOWN","rcs_meters":null,"size_class":null,"mass_kg":null,"dimensions":null,"purposes":["comms"],"wikipedia_slug":null,"has_3d_model":false,"image_url":null,"decayed_at":null,"tle_current":{"epoch":"2026-05-24T16:39:04.204224Z","epoch_age_seconds":104791,"freshness":"FRESH","line1":"1 59505U 24071X   26144.69379866  .00000127  00000+0  14135-4 0  9996","line2":"2 59505  43.0007 271.0142 0001193 266.4790  93.5925 15.27574382119823","mean_motion":15.27574382,"eccentricity":0.0001193,"inclination_deg":43.0007,"raan_deg":271.0142,"arg_perigee_deg":266.479,"mean_anomaly_deg":93.5925,"bstar":1.4135e-5,"rev_number":11982,"period_min":94.267095400923,"perigee_km":482.24737689611,"apogee_km":483.88445991244,"semimajor_km":6861.2029184043,"source":"CELESTRAK","updated_at":"2026-05-25T13:38:18.973286Z"}}}